EJM912 KSNA-KNEW

Flight info

Callsign EJM912
Flight time 3h 3m
Altitude 41000
Route PIGGN3 CNERY BLH J169 TFD J50 ELP J86 IAH J2 LCH AWDAD1
Aircraft C700/M-SBDGHM1RWXY/LB2

Departure

Time 2026-05-06 23:44
Airport John Wayne Orange County International Airport (KSNA)

Arrival

Time 2026-05-07 02:47
Airport Lakefront Airport (KNEW)
Time Latitude Longitude Altitude Speed Heading
2026-05-06 23:20 33.67170 -117.86775 53 ft 0 kts 186°
2026-05-06 23:36 33.67173 -117.86775 50 ft 2 kts 186°
2026-05-06 23:36 33.67183 -117.86773 48 ft 0 kts 186°
2026-05-06 23:39 33.67180 -117.86780 52 ft 1 kts 258°
2026-05-06 23:39 33.67212 -117.86803 55 ft 10 kts 356°
2026-05-06 23:40 33.67281 -117.86766 54 ft 12 kts 38°
2026-05-06 23:40 33.67344 -117.86692 56 ft 14 kts 29°
2026-05-06 23:40 33.67439 -117.86634 56 ft 17 kts 28°
2026-05-06 23:40 33.67557 -117.86558 51 ft 21 kts 28°
2026-05-06 23:41 33.67698 -117.86470 50 ft 25 kts 26°
2026-05-06 23:41 33.67853 -117.86370 47 ft 22 kts 28°
2026-05-06 23:41 33.67979 -117.86290 44 ft 15 kts 28°
2026-05-06 23:41 33.68034 -117.86270 43 ft 9 kts 346°
2026-05-06 23:42 33.68067 -117.86312 43 ft 12 kts 299°
2026-05-06 23:42 33.68109 -117.86408 41 ft 10 kts 298°
2026-05-06 23:42 33.68116 -117.86424 41 ft 0 kts 299°
2026-05-06 23:43 33.68130 -117.86453 41 ft 9 kts 298°
2026-05-06 23:43 33.68145 -117.86523 40 ft 6 kts 216°
2026-05-06 23:44 33.68130 -117.86533 41 ft 3 kts 208°
2026-05-06 23:44 33.67859 -117.86704 47 ft 90 kts 208°
2026-05-06 23:44 33.67059 -117.87193 217 ft 158 kts 209°
2026-05-06 23:44 33.66015 -117.87907 1043 ft 188 kts 211°
2026-05-06 23:45 33.64807 -117.88635 1848 ft 193 kts 206°
2026-05-06 23:45 33.63479 -117.89061 2613 ft 205 kts 187°
2026-05-06 23:45 33.61977 -117.89182 3394 ft 232 kts 187°
2026-05-06 23:45 33.60270 -117.89466 4179 ft 262 kts 189°
2026-05-06 23:46 33.58431 -117.89731 4926 ft 274 kts 183°
2026-05-06 23:46 33.56497 -117.89385 5156 ft 282 kts 160°
2026-05-06 23:46 33.54763 -117.88431 6631 ft 274 kts 150°
2026-05-06 23:46 33.53052 -117.87357 8145 ft 282 kts 150°
2026-05-06 23:47 33.51436 -117.86007 9565 ft 286 kts 133°
2026-05-06 23:47 33.50134 -117.84167 10777 ft 299 kts 120°
2026-05-06 23:47 33.49192 -117.81866 11839 ft 314 kts 110°
2026-05-06 23:47 33.48312 -117.79454 13346 ft 319 kts 107°
2026-05-06 23:48 33.47812 -117.76859 14651 ft 322 kts 94°
2026-05-06 23:48 33.47761 -117.74170 15926 ft 325 kts 83°
2026-05-06 23:48 33.48030 -117.71460 17181 ft 329 kts 77°
2026-05-06 23:48 33.48697 -117.68827 18433 ft 333 kts 66°
2026-05-06 23:49 33.49763 -117.66350 19486 ft 337 kts 58°
2026-05-06 23:49 33.50950 -117.63895 20523 ft 343 kts 58°
2026-05-06 23:49 33.52131 -117.61385 21502 ft 348 kts 58°
2026-05-06 23:49 33.53336 -117.58844 22472 ft 353 kts 58°
2026-05-06 23:50 33.54566 -117.56270 23461 ft 358 kts 58°
2026-05-06 23:50 33.56461 -117.50657 25143 ft 371 kts 74°
2026-05-06 23:50 33.56798 -117.47602 25945 ft 379 kts 84°
2026-05-06 23:51 33.56690 -117.44413 26731 ft 388 kts 94°
2026-05-06 23:51 33.56098 -117.41222 27520 ft 397 kts 103°
2026-05-06 23:51 33.55121 -117.38085 28254 ft 403 kts 107°
2026-05-06 23:51 33.54127 -117.34933 29046 ft 406 kts 106°
2026-05-06 23:52 33.53135 -117.31745 29825 ft 411 kts 106°
2026-05-06 23:52 33.52122 -117.28518 30507 ft 416 kts 106°
2026-05-06 23:52 33.51143 -117.25255 31131 ft 416 kts 102°
2026-05-06 23:52 33.50562 -117.21855 31747 ft 416 kts 93°
2026-05-06 23:53 33.50386 -117.18403 32350 ft 416 kts 87°
2026-05-06 23:53 33.50330 -117.14921 32930 ft 420 kts 87°
2026-05-06 23:53 33.50250 -117.11419 33649 ft 419 kts 87°
2026-05-06 23:53 33.50172 -117.07993 34414 ft 416 kts 87°
2026-05-06 23:54 33.50109 -117.04534 34988 ft 416 kts 87°
2026-05-06 23:54 33.50042 -117.01065 35523 ft 417 kts 87°
2026-05-06 23:54 33.49968 -116.97595 36084 ft 416 kts 87°
2026-05-06 23:54 33.49889 -116.94126 36593 ft 416 kts 87°
2026-05-06 23:55 33.49815 -116.90656 37040 ft 417 kts 87°
2026-05-06 23:55 33.49752 -116.87179 37502 ft 417 kts 86°
2026-05-06 23:55 33.49731 -116.83707 37965 ft 416 kts 86°
2026-05-06 23:55 33.49709 -116.80237 38407 ft 416 kts 86°
2026-05-06 23:56 33.49663 -116.76758 38772 ft 417 kts 86°
2026-05-06 23:56 33.49614 -116.73279 39039 ft 419 kts 86°
2026-05-06 23:56 33.49574 -116.69788 39313 ft 419 kts 86°
2026-05-06 23:56 33.49536 -116.66283 39557 ft 421 kts 87°
2026-05-06 23:57 33.49492 -116.62772 39795 ft 423 kts 87°
2026-05-06 23:57 33.49444 -116.59242 40021 ft 424 kts 87°
2026-05-06 23:57 33.49396 -116.55702 40274 ft 425 kts 87°
2026-05-06 23:57 33.49352 -116.52152 40492 ft 426 kts 87°
2026-05-06 23:58 33.49304 -116.48598 40700 ft 428 kts 88°
2026-05-06 23:58 33.49253 -116.45031 40901 ft 429 kts 88°
2026-05-06 23:58 33.49152 -116.37843 40968 ft 441 kts 88°
2026-05-06 23:59 33.49041 -116.30388 40961 ft 454 kts 88°
2026-05-06 23:59 33.48924 -116.22730 40952 ft 465 kts 88°
2026-05-07 00:00 33.48798 -116.14896 40957 ft 475 kts 88°
2026-05-07 00:00 33.48691 -116.06967 40950 ft 474 kts 85°
2026-05-07 00:01 33.49822 -115.99284 40958 ft 465 kts 69°
2026-05-07 00:01 33.51957 -115.92001 40963 ft 463 kts 68°
2026-05-07 00:02 33.54089 -115.84681 40970 ft 467 kts 68°
2026-05-07 00:02 33.56220 -115.77384 40982 ft 467 kts 68°
2026-05-07 00:03 33.58357 -115.70020 40987 ft 467 kts 68°
2026-05-07 00:03 33.60496 -115.62647 40982 ft 467 kts 69°
2026-05-07 00:04 33.61652 -115.54951 40980 ft 472 kts 85°
2026-05-07 00:04 33.61502 -115.47055 40982 ft 473 kts 89°
2026-05-07 00:05 33.61321 -115.39173 40986 ft 473 kts 89°
2026-05-07 00:05 33.61117 -115.31262 40979 ft 475 kts 89°
2026-05-07 00:06 33.60920 -115.23359 40980 ft 478 kts 89°
2026-05-07 00:06 33.60708 -115.15351 40977 ft 480 kts 89°
2026-05-07 00:07 33.60495 -115.07359 40977 ft 478 kts 89°
2026-05-07 00:07 33.60275 -114.99395 40972 ft 476 kts 90°
2026-05-07 00:08 33.60053 -114.91454 40969 ft 477 kts 90°
2026-05-07 00:08 33.59823 -114.83491 40971 ft 479 kts 90°
2026-05-07 00:09 33.59560 -114.75490 40972 ft 481 kts 93°
2026-05-07 00:09 33.58833 -114.67492 40971 ft 483 kts 95°
2026-05-07 00:10 33.58142 -114.59534 40974 ft 481 kts 94°
2026-05-07 00:10 33.57418 -114.51564 40975 ft 479 kts 95°
2026-05-07 00:11 33.56707 -114.43633 40972 ft 479 kts 95°
2026-05-07 00:11 33.55979 -114.35663 40975 ft 482 kts 95°
2026-05-07 00:12 33.55246 -114.27646 40984 ft 485 kts 95°
2026-05-07 00:12 33.54508 -114.19667 40983 ft 484 kts 95°
2026-05-07 00:13 33.53765 -114.11664 40982 ft 483 kts 95°
2026-05-07 00:13 33.53016 -114.03670 40977 ft 483 kts 95°
2026-05-07 00:14 33.52259 -113.95633 40973 ft 487 kts 95°
2026-05-07 00:14 33.51489 -113.87533 40975 ft 490 kts 96°
2026-05-07 00:15 33.50715 -113.79429 40971 ft 489 kts 96°
2026-05-07 00:15 33.49937 -113.71348 40970 ft 487 kts 96°
2026-05-07 00:16 33.49153 -113.63269 40965 ft 489 kts 96°
2026-05-07 00:16 33.48367 -113.55208 40964 ft 491 kts 96°
2026-05-07 00:17 33.47566 -113.47067 40969 ft 493 kts 97°
2026-05-07 00:17 33.46756 -113.38890 40968 ft 493 kts 97°
2026-05-07 00:18 33.44862 -113.31048 40959 ft 490 kts 115°
2026-05-07 00:18 33.41941 -113.23684 40957 ft 490 kts 116°
2026-05-07 00:19 33.39054 -113.16333 40951 ft 492 kts 116°
2026-05-07 00:19 33.36114 -113.08914 40955 ft 494 kts 116°
2026-05-07 00:20 33.33166 -113.01463 40959 ft 496 kts 116°
2026-05-07 00:20 33.30202 -112.94004 40960 ft 496 kts 117°
2026-05-07 00:21 33.27244 -112.86568 40958 ft 495 kts 117°
2026-05-07 00:21 33.24303 -112.79195 40956 ft 494 kts 117°
2026-05-07 00:22 33.21344 -112.71792 40957 ft 495 kts 117°
2026-05-07 00:22 33.18364 -112.64353 40954 ft 498 kts 118°
2026-05-07 00:23 33.15362 -112.56872 40956 ft 500 kts 118°
2026-05-07 00:23 33.12359 -112.49408 40949 ft 497 kts 118°
2026-05-07 00:24 33.09364 -112.41978 40949 ft 496 kts 118°
2026-05-07 00:24 33.06356 -112.34538 40940 ft 501 kts 118°
2026-05-07 00:25 33.03320 -112.27034 40942 ft 502 kts 118°
2026-05-07 00:25 33.00283 -112.19550 40944 ft 500 kts 119°
2026-05-07 00:26 32.97267 -112.12135 40941 ft 499 kts 119°
2026-05-07 00:26 32.94228 -112.04679 40938 ft 501 kts 119°
2026-05-07 00:27 32.91189 -111.97236 40934 ft 504 kts 120°
2026-05-07 00:27 32.88329 -111.89596 40930 ft 510 kts 111°
2026-05-07 00:28 32.86500 -111.81419 40933 ft 511 kts 108°
2026-05-07 00:28 32.84673 -111.73257 40926 ft 510 kts 108°
2026-05-07 00:29 32.82865 -111.65113 40928 ft 509 kts 108°
2026-05-07 00:30 32.79518 -111.50185 40943 ft 513 kts 109°
2026-05-07 00:30 32.77670 -111.41973 40957 ft 516 kts 109°
2026-05-07 00:31 32.75807 -111.33722 40986 ft 515 kts 109°
2026-05-07 00:31 32.73960 -111.25568 40982 ft 515 kts 109°
2026-05-07 00:32 32.72092 -111.17352 40980 ft 515 kts 109°
2026-05-07 00:32 32.70220 -111.09144 40972 ft 515 kts 109°
2026-05-07 00:33 32.68344 -111.00939 40958 ft 516 kts 109°
2026-05-07 00:33 32.66456 -110.92718 40954 ft 517 kts 110°
2026-05-07 00:34 32.64556 -110.84463 40945 ft 518 kts 110°
2026-05-07 00:34 32.62648 -110.76207 40949 ft 519 kts 110°
2026-05-07 00:35 32.60729 -110.67924 40947 ft 521 kts 110°
2026-05-07 00:35 32.58811 -110.59678 40941 ft 522 kts 110°
2026-05-07 00:36 32.56871 -110.51365 40945 ft 523 kts 110°
2026-05-07 00:36 32.54921 -110.43035 40944 ft 525 kts 111°
2026-05-07 00:37 32.52960 -110.34684 40943 ft 526 kts 111°
2026-05-07 00:37 32.50998 -110.26353 40944 ft 524 kts 111°
2026-05-07 00:38 32.49040 -110.18082 40942 ft 525 kts 111°
2026-05-07 00:38 32.47067 -110.09752 40942 ft 525 kts 112°
2026-05-07 00:39 32.45085 -110.01428 40939 ft 525 kts 112°
2026-05-07 00:39 32.43098 -109.93101 40936 ft 527 kts 112°
2026-05-07 00:40 32.41093 -109.84734 40934 ft 530 kts 112°
2026-05-07 00:40 32.39072 -109.76313 40924 ft 533 kts 112°
2026-05-07 00:41 32.37040 -109.67884 40913 ft 532 kts 112°
2026-05-07 00:41 32.35009 -109.59480 40913 ft 530 kts 113°
2026-05-07 00:42 32.32974 -109.51096 40907 ft 532 kts 113°
2026-05-07 00:42 32.30931 -109.42699 40909 ft 535 kts 113°
2026-05-07 00:43 32.28861 -109.34220 40912 ft 537 kts 113°
2026-05-07 00:43 32.26796 -109.25751 40908 ft 536 kts 112°
2026-05-07 00:44 32.24868 -109.17252 40905 ft 534 kts 112°
2026-05-07 00:44 32.22909 -109.08773 40912 ft 537 kts 112°
2026-05-07 00:45 32.20960 -109.00234 40954 ft 540 kts 112°
2026-05-07 00:45 32.18980 -108.91675 40981 ft 542 kts 112°
2026-05-07 00:46 32.17000 -108.83088 41001 ft 541 kts 113°
2026-05-07 00:46 32.15008 -108.74521 41007 ft 540 kts 113°
2026-05-07 00:47 32.13034 -108.66027 41000 ft 539 kts 113°
2026-05-07 00:47 32.11035 -108.57484 40981 ft 541 kts 113°
2026-05-07 00:48 32.09029 -108.48913 40950 ft 543 kts 113°
2026-05-07 00:48 32.07007 -108.40319 40915 ft 544 kts 114°
2026-05-07 00:49 32.04977 -108.31710 40910 ft 545 kts 114°
2026-05-07 00:49 32.02945 -108.23120 40907 ft 543 kts 114°
2026-05-07 00:50 32.00916 -108.14580 40905 ft 540 kts 114°
2026-05-07 00:50 31.98894 -108.06101 40901 ft 543 kts 114°
2026-05-07 00:51 31.96842 -107.97508 40896 ft 546 kts 114°
2026-05-07 00:51 31.94781 -107.88910 40898 ft 545 kts 114°
2026-05-07 00:52 31.92730 -107.80341 40900 ft 544 kts 113°
2026-05-07 00:52 31.91707 -107.71390 40895 ft 557 kts 101°
2026-05-07 00:53 31.91112 -107.62279 40880 ft 559 kts 102°
2026-05-07 00:53 31.90507 -107.53121 40881 ft 563 kts 101°
2026-05-07 00:54 31.89897 -107.43935 40876 ft 562 kts 102°
2026-05-07 00:54 31.89280 -107.34844 40871 ft 560 kts 102°
2026-05-07 00:55 31.88659 -107.25716 40867 ft 560 kts 102°
2026-05-07 00:55 31.88026 -107.16567 40869 ft 562 kts 102°
2026-05-07 00:56 31.87388 -107.07383 40894 ft 564 kts 102°
2026-05-07 00:56 31.86737 -106.98163 40945 ft 567 kts 102°
2026-05-07 00:57 31.86081 -106.88906 40998 ft 567 kts 102°
2026-05-07 00:57 31.85416 -106.79670 41037 ft 566 kts 102°
2026-05-07 00:58 31.84748 -106.70460 41037 ft 564 kts 102°
2026-05-07 00:58 31.84078 -106.61329 41037 ft 563 kts 102°
2026-05-07 00:59 31.83054 -106.47562 41010 ft 565 kts 103°
2026-05-07 01:00 31.82361 -106.38331 41017 ft 567 kts 103°
2026-05-07 01:00 31.81593 -106.29121 41011 ft 560 kts 108°
2026-05-07 01:00 31.80743 -106.24712 40997 ft 547 kts 115°
2026-05-07 01:01 31.79675 -106.20425 40980 ft 545 kts 116°
2026-05-07 01:01 31.77570 -106.11892 40937 ft 547 kts 116°
2026-05-07 01:02 31.75433 -106.03284 40897 ft 550 kts 116°
2026-05-07 01:02 31.73283 -105.94630 40861 ft 553 kts 116°
2026-05-07 01:03 31.71109 -105.85921 40873 ft 555 kts 116°
2026-05-07 01:03 31.68940 -105.77244 40877 ft 553 kts 116°
2026-05-07 01:04 31.66767 -105.68597 40880 ft 552 kts 116°
2026-05-07 01:04 31.64586 -105.59939 40874 ft 553 kts 116°
2026-05-07 01:05 31.62411 -105.51326 40871 ft 554 kts 116°
2026-05-07 01:05 31.60212 -105.42656 40866 ft 555 kts 116°
2026-05-07 01:06 31.58007 -105.33981 40866 ft 555 kts 116°
2026-05-07 01:06 31.55793 -105.25303 40871 ft 555 kts 116°
2026-05-07 01:07 31.53570 -105.16621 40871 ft 555 kts 116°
2026-05-07 01:07 31.51345 -105.07949 40871 ft 555 kts 116°
2026-05-07 01:08 31.49116 -104.99292 40872 ft 553 kts 116°
2026-05-07 01:08 31.46906 -104.90737 40867 ft 551 kts 116°
2026-05-07 01:09 31.44680 -104.82145 40872 ft 551 kts 116°
2026-05-07 01:09 31.42446 -104.73556 40872 ft 552 kts 116°
2026-05-07 01:10 31.40206 -104.64958 40869 ft 552 kts 116°
2026-05-07 01:10 31.37955 -104.56349 40866 ft 552 kts 116°
2026-05-07 01:11 31.35706 -104.47770 40861 ft 550 kts 116°
2026-05-07 01:11 31.33458 -104.39226 40860 ft 549 kts 116°
2026-05-07 01:12 31.31208 -104.30697 40861 ft 547 kts 116°
2026-05-07 01:12 31.28961 -104.22208 40858 ft 546 kts 116°
2026-05-07 01:13 31.26713 -104.13745 40852 ft 549 kts 116°
2026-05-07 01:13 31.24441 -104.05206 40845 ft 550 kts 116°
2026-05-07 01:14 31.22166 -103.96676 40840 ft 549 kts 116°
2026-05-07 01:14 31.19891 -103.88184 40834 ft 546 kts 117°
2026-05-07 01:15 31.17621 -103.79734 40843 ft 545 kts 117°
2026-05-07 01:15 31.15356 -103.71330 40855 ft 548 kts 117°
2026-05-07 01:16 31.13061 -103.62829 40862 ft 550 kts 117°
2026-05-07 01:16 31.10746 -103.54285 40866 ft 553 kts 117°
2026-05-07 01:17 31.08414 -103.45700 40861 ft 555 kts 117°
2026-05-07 01:17 31.06075 -103.37114 40845 ft 555 kts 117°
2026-05-07 01:18 31.04127 -103.29987 40835 ft 555 kts 117°
2026-05-07 01:18 31.01780 -103.21420 40870 ft 555 kts 117°
2026-05-07 01:19 30.99429 -103.12861 40903 ft 554 kts 117°
2026-05-07 01:19 30.97070 -103.04300 40947 ft 554 kts 117°
2026-05-07 01:20 30.95035 -102.95573 40963 ft 568 kts 107°
2026-05-07 01:20 30.94097 -102.86360 40969 ft 573 kts 104°
2026-05-07 01:21 30.93153 -102.77129 40949 ft 575 kts 104°
2026-05-07 01:21 30.92223 -102.67886 40912 ft 574 kts 104°
2026-05-07 01:22 30.91281 -102.58727 40876 ft 572 kts 104°
2026-05-07 01:22 30.90337 -102.49538 40839 ft 570 kts 104°
2026-05-07 01:23 30.89386 -102.40395 40844 ft 568 kts 104°
2026-05-07 01:23 30.88438 -102.31297 40843 ft 565 kts 104°
2026-05-07 01:24 30.87482 -102.22233 40851 ft 562 kts 104°
2026-05-07 01:24 30.86528 -102.13223 40853 ft 560 kts 104°
2026-05-07 01:25 30.85568 -102.04225 40863 ft 560 kts 104°
2026-05-07 01:25 30.84603 -101.95254 40869 ft 563 kts 104°
2026-05-07 01:26 30.83627 -101.86195 40872 ft 563 kts 104°
2026-05-07 01:26 30.82643 -101.77167 40880 ft 562 kts 104°
2026-05-07 01:27 30.81659 -101.68156 40886 ft 560 kts 104°
2026-05-07 01:27 30.80666 -101.59172 40899 ft 560 kts 104°
2026-05-07 01:28 30.79669 -101.50169 40938 ft 561 kts 104°
2026-05-07 01:28 30.78660 -101.41156 40975 ft 562 kts 104°
2026-05-07 01:29 30.77654 -101.32179 41008 ft 563 kts 104°
2026-05-07 01:29 30.76631 -101.23143 41011 ft 564 kts 104°
2026-05-07 01:30 30.75601 -101.14082 41008 ft 566 kts 104°
2026-05-07 01:30 30.74561 -101.05005 40996 ft 567 kts 104°
2026-05-07 01:31 30.73517 -100.95938 40971 ft 565 kts 104°
2026-05-07 01:31 30.72469 -100.86904 40980 ft 563 kts 104°
2026-05-07 01:32 30.71419 -100.77900 41006 ft 562 kts 104°
2026-05-07 01:32 30.70361 -100.68890 41025 ft 564 kts 104°
2026-05-07 01:33 30.69293 -100.59844 41028 ft 566 kts 104°
2026-05-07 01:33 30.68217 -100.50779 41012 ft 565 kts 104°
2026-05-07 01:34 30.67145 -100.41798 40988 ft 562 kts 104°
2026-05-07 01:34 30.66063 -100.32813 40955 ft 560 kts 105°
2026-05-07 01:35 30.64980 -100.23858 40920 ft 561 kts 105°
2026-05-07 01:35 30.63886 -100.14866 40924 ft 563 kts 105°
2026-05-07 01:36 30.62783 -100.05848 40946 ft 563 kts 105°
2026-05-07 01:36 30.61685 -99.96920 40969 ft 560 kts 105°
2026-05-07 01:37 30.60579 -99.87982 40995 ft 557 kts 105°
2026-05-07 01:37 30.59464 -99.79048 41010 ft 560 kts 105°
2026-05-07 01:38 30.58334 -99.70088 41010 ft 562 kts 105°
2026-05-07 01:38 30.57206 -99.61172 40995 ft 561 kts 105°
2026-05-07 01:39 30.56067 -99.52239 40974 ft 558 kts 105°
2026-05-07 01:39 30.54927 -99.43349 40954 ft 557 kts 105°
2026-05-07 01:40 30.53778 -99.34435 40934 ft 560 kts 105°
2026-05-07 01:40 30.52618 -99.25477 40938 ft 561 kts 105°
2026-05-07 01:41 30.51454 -99.16536 40943 ft 559 kts 105°
2026-05-07 01:41 30.50296 -99.07703 40937 ft 556 kts 105°
2026-05-07 01:42 30.49128 -98.98832 40941 ft 557 kts 105°
2026-05-07 01:42 30.47948 -98.89926 40942 ft 559 kts 105°
2026-05-07 01:43 30.46760 -98.81003 40953 ft 560 kts 105°
2026-05-07 01:43 30.45569 -98.72089 40960 ft 559 kts 105°
2026-05-07 01:44 30.44371 -98.63197 40976 ft 557 kts 105°
2026-05-07 01:44 30.43178 -98.54372 41002 ft 557 kts 105°
2026-05-07 01:45 30.41971 -98.45503 41017 ft 557 kts 105°
2026-05-07 01:45 30.40761 -98.36645 41019 ft 556 kts 105°
2026-05-07 01:46 30.39547 -98.27810 41013 ft 555 kts 105°
2026-05-07 01:46 30.38325 -98.18971 40997 ft 557 kts 105°
2026-05-07 01:47 30.37101 -98.10151 41024 ft 559 kts 105°
2026-05-07 01:47 30.35859 -98.01241 41029 ft 559 kts 105°
2026-05-07 01:48 30.34616 -97.92374 41027 ft 557 kts 105°
2026-05-07 01:48 30.33369 -97.83537 41013 ft 555 kts 105°
2026-05-07 01:49 30.32114 -97.74681 40970 ft 559 kts 105°
2026-05-07 01:49 30.30854 -97.65825 40977 ft 561 kts 105°
2026-05-07 01:50 30.29583 -97.56929 40967 ft 558 kts 105°
2026-05-07 01:50 30.28311 -97.48098 40958 ft 556 kts 105°
2026-05-07 01:51 30.27031 -97.39240 40940 ft 560 kts 105°
2026-05-07 01:51 30.25736 -97.30320 40928 ft 562 kts 105°
2026-05-07 01:52 30.24451 -97.21493 40950 ft 559 kts 105°
2026-05-07 01:52 30.23152 -97.12649 40976 ft 557 kts 105°
2026-05-07 01:53 30.21847 -97.03800 41001 ft 560 kts 105°
2026-05-07 01:53 30.20529 -96.94895 41001 ft 562 kts 105°
2026-05-07 01:54 30.19205 -96.85997 40991 ft 560 kts 105°
2026-05-07 01:54 30.17887 -96.77188 40939 ft 558 kts 105°
2026-05-07 01:55 30.16562 -96.68366 40877 ft 558 kts 105°
2026-05-07 01:55 30.15225 -96.59517 40812 ft 560 kts 105°
2026-05-07 01:56 30.13879 -96.50637 40779 ft 562 kts 105°
2026-05-07 01:56 30.12527 -96.41760 40763 ft 560 kts 105°
2026-05-07 01:57 30.11174 -96.32924 40753 ft 557 kts 105°
2026-05-07 01:57 30.09824 -96.24142 40743 ft 555 kts 105°
2026-05-07 01:58 30.08471 -96.15397 40743 ft 557 kts 105°
2026-05-07 01:58 30.07102 -96.06569 40790 ft 559 kts 105°
2026-05-07 01:59 30.05730 -95.97765 40827 ft 555 kts 105°
2026-05-07 01:59 30.04360 -95.89020 40851 ft 552 kts 105°
2026-05-07 02:00 30.02986 -95.80301 40854 ft 553 kts 105°
2026-05-07 02:00 30.01604 -95.71544 40899 ft 555 kts 105°
2026-05-07 02:01 30.00209 -95.62762 40925 ft 556 kts 105°
2026-05-07 02:01 29.98815 -95.54009 40923 ft 553 kts 105°
2026-05-07 02:02 29.97428 -95.45355 40920 ft 550 kts 105°
2026-05-07 02:02 29.96108 -95.36659 40914 ft 555 kts 100°
2026-05-07 02:03 29.96314 -95.27674 40922 ft 565 kts 86°
2026-05-07 02:03 29.97134 -95.18660 40929 ft 563 kts 86°
2026-05-07 02:04 29.97931 -95.09703 40918 ft 559 kts 86°
2026-05-07 02:04 29.98729 -95.00749 40905 ft 562 kts 86°
2026-05-07 02:05 29.99519 -94.91747 40893 ft 565 kts 86°
2026-05-07 02:05 30.00308 -94.82755 40896 ft 562 kts 86°
2026-05-07 02:06 30.01079 -94.73838 40892 ft 559 kts 86°
2026-05-07 02:06 30.01720 -94.66405 40888 ft 560 kts 86°
2026-05-07 02:07 30.02484 -94.57441 40888 ft 563 kts 86°
2026-05-07 02:07 30.03626 -94.43950 40894 ft 562 kts 86°
2026-05-07 02:08 30.04376 -94.34985 40900 ft 559 kts 86°
2026-05-07 02:08 30.05117 -94.26068 40898 ft 558 kts 86°
2026-05-07 02:09 30.05851 -94.17144 40901 ft 560 kts 86°
2026-05-07 02:09 30.06579 -94.08235 40900 ft 562 kts 86°
2026-05-07 02:10 30.07305 -93.99260 40897 ft 560 kts 86°
2026-05-07 02:10 30.08022 -93.90330 40927 ft 557 kts 86°
2026-05-07 02:11 30.08730 -93.81431 40928 ft 556 kts 86°
2026-05-07 02:11 30.09433 -93.72511 40924 ft 559 kts 86°
2026-05-07 02:12 30.10135 -93.63549 40918 ft 560 kts 86°
2026-05-07 02:12 30.10827 -93.54621 40918 ft 557 kts 86°
2026-05-07 02:13 30.11511 -93.45722 40925 ft 555 kts 86°
2026-05-07 02:13 30.12182 -93.36903 40926 ft 555 kts 86°
2026-05-07 02:14 30.12855 -93.27980 40918 ft 558 kts 86°
2026-05-07 02:14 30.13523 -93.19052 40916 ft 557 kts 86°
2026-05-07 02:15 30.14176 -93.10146 40920 ft 554 kts 88°
2026-05-07 02:15 30.14612 -93.01284 40915 ft 551 kts 88°
2026-05-07 02:16 30.15075 -92.92482 40916 ft 552 kts 89°
2026-05-07 02:16 30.15499 -92.83599 40911 ft 555 kts 88°
2026-05-07 02:17 30.15946 -92.74692 40909 ft 553 kts 89°
2026-05-07 02:17 30.16365 -92.65838 40909 ft 550 kts 89°
2026-05-07 02:18 30.16577 -92.61417 40487 ft 551 kts 89°
2026-05-07 02:18 30.16788 -92.57012 39772 ft 545 kts 89°
2026-05-07 02:18 30.16992 -92.52677 39063 ft 536 kts 89°
2026-05-07 02:18 30.17190 -92.48405 38326 ft 528 kts 89°
2026-05-07 02:19 30.17381 -92.44256 37633 ft 521 kts 89°
2026-05-07 02:19 30.17574 -92.40083 36955 ft 520 kts 89°
2026-05-07 02:19 30.17764 -92.35886 36263 ft 528 kts 89°
2026-05-07 02:19 30.17958 -92.31605 35569 ft 537 kts 88°
2026-05-07 02:20 30.18154 -92.27276 34861 ft 540 kts 88°
2026-05-07 02:20 30.18349 -92.22939 34153 ft 540 kts 88°
2026-05-07 02:20 30.18541 -92.18613 33403 ft 539 kts 88°
2026-05-07 02:20 30.18730 -92.14298 32694 ft 537 kts 88°
2026-05-07 02:21 30.18920 -92.09970 31984 ft 541 kts 88°
2026-05-07 02:21 30.19109 -92.05604 31268 ft 546 kts 88°
2026-05-07 02:21 30.19298 -92.01205 30545 ft 548 kts 88°
2026-05-07 02:21 30.19220 -91.96808 29789 ft 548 kts 97°
2026-05-07 02:22 30.18881 -91.92441 29054 ft 540 kts 97°
2026-05-07 02:22 30.18590 -91.88149 28346 ft 531 kts 96°
2026-05-07 02:22 30.18310 -91.83928 27652 ft 523 kts 97°
2026-05-07 02:22 30.18004 -91.79766 26968 ft 516 kts 97°
2026-05-07 02:23 30.17694 -91.75648 26291 ft 511 kts 97°
2026-05-07 02:23 30.17403 -91.71573 25623 ft 507 kts 97°
2026-05-07 02:23 30.17117 -91.67529 24958 ft 503 kts 97°
2026-05-07 02:23 30.16823 -91.63520 24297 ft 498 kts 97°
2026-05-07 02:24 30.16529 -91.59555 23645 ft 492 kts 97°
2026-05-07 02:24 30.16242 -91.55639 22947 ft 486 kts 97°
2026-05-07 02:24 30.15960 -91.51783 22310 ft 478 kts 97°
2026-05-07 02:24 30.15677 -91.47971 21685 ft 474 kts 97°
2026-05-07 02:25 30.15396 -91.44226 21070 ft 472 kts 98°
2026-05-07 02:25 30.15115 -91.40466 20451 ft 469 kts 97°
2026-05-07 02:25 30.14837 -91.36729 19833 ft 464 kts 98°
2026-05-07 02:25 30.14560 -91.33041 19228 ft 458 kts 98°
2026-05-07 02:26 30.14283 -91.29394 18628 ft 453 kts 98°
2026-05-07 02:26 30.14009 -91.25782 18010 ft 449 kts 98°
2026-05-07 02:26 30.13738 -91.22205 17406 ft 443 kts 98°
2026-05-07 02:26 30.13469 -91.18679 16827 ft 434 kts 98°
2026-05-07 02:27 30.13212 -91.15286 16319 ft 413 kts 98°
2026-05-07 02:27 30.12964 -91.12055 15805 ft 396 kts 99°
2026-05-07 02:27 30.12721 -91.08936 15289 ft 383 kts 99°
2026-05-07 02:27 30.12487 -91.05923 14797 ft 371 kts 99°
2026-05-07 02:28 30.12260 -91.02986 14305 ft 362 kts 99°
2026-05-07 02:28 30.12037 -91.00124 13843 ft 353 kts 100°
2026-05-07 02:28 30.11820 -90.97354 13360 ft 348 kts 100°
2026-05-07 02:28 30.11601 -90.94581 13008 ft 342 kts 100°
2026-05-07 02:29 30.11435 -90.91865 12993 ft 343 kts 93°
2026-05-07 02:29 30.11981 -90.89129 12914 ft 352 kts 68°
2026-05-07 02:29 30.13343 -90.86798 12143 ft 352 kts 42°
2026-05-07 02:29 30.15353 -90.85296 11566 ft 339 kts 18°
2026-05-07 02:30 30.17557 -90.84430 10977 ft 332 kts 12°
2026-05-07 02:30 30.19711 -90.83482 10411 ft 331 kts 18°
2026-05-07 02:30 30.21820 -90.82422 9861 ft 328 kts 19°
2026-05-07 02:30 30.23892 -90.81361 9287 ft 324 kts 19°
2026-05-07 02:31 30.25897 -90.80185 8686 ft 325 kts 31°
2026-05-07 02:31 30.27397 -90.78233 8111 ft 327 kts 60°
2026-05-07 02:31 30.28070 -90.75790 7569 ft 322 kts 82°
2026-05-07 02:31 30.28306 -90.73228 7004 ft 319 kts 87°
2026-05-07 02:32 30.28456 -90.70691 6519 ft 314 kts 88°
2026-05-07 02:32 30.28584 -90.68179 5981 ft 310 kts 89°
2026-05-07 02:32 30.28699 -90.65701 5458 ft 306 kts 89°
2026-05-07 02:32 30.28816 -90.63257 4944 ft 302 kts 89°
2026-05-07 02:33 30.28934 -90.60840 4520 ft 296 kts 89°
2026-05-07 02:33 30.29051 -90.58567 4417 ft 271 kts 89°
2026-05-07 02:33 30.29167 -90.56427 4175 ft 264 kts 89°
2026-05-07 02:33 30.29288 -90.54321 4002 ft 257 kts 89°
2026-05-07 02:34 30.29412 -90.52274 3991 ft 257 kts 89°
2026-05-07 02:34 30.29536 -90.50184 3993 ft 263 kts 89°
2026-05-07 02:34 30.29653 -90.48065 3990 ft 264 kts 89°
2026-05-07 02:34 30.29773 -90.45971 3994 ft 264 kts 89°
2026-05-07 02:35 30.29902 -90.43849 3995 ft 263 kts 89°
2026-05-07 02:35 30.30029 -90.41744 3996 ft 262 kts 89°
2026-05-07 02:35 30.30153 -90.39668 4001 ft 253 kts 89°
2026-05-07 02:35 30.30279 -90.37687 3993 ft 242 kts 89°
2026-05-07 02:36 30.30404 -90.35765 3989 ft 238 kts 89°
2026-05-07 02:36 30.30527 -90.33853 3995 ft 239 kts 89°
2026-05-07 02:36 30.30648 -90.31921 3995 ft 242 kts 89°
2026-05-07 02:36 30.30771 -90.29971 3991 ft 244 kts 89°
2026-05-07 02:37 30.30897 -90.28016 3990 ft 244 kts 89°
2026-05-07 02:37 30.31030 -90.26064 3992 ft 242 kts 88°
2026-05-07 02:37 30.31159 -90.24115 3996 ft 243 kts 89°
2026-05-07 02:37 30.31284 -90.22190 3992 ft 243 kts 89°
2026-05-07 02:38 30.31412 -90.20238 4003 ft 243 kts 89°
2026-05-07 02:38 30.31535 -90.18294 3990 ft 239 kts 88°
2026-05-07 02:38 30.31651 -90.16427 3988 ft 226 kts 89°
2026-05-07 02:38 30.31770 -90.14640 3996 ft 219 kts 89°
2026-05-07 02:39 30.31894 -90.12887 3994 ft 219 kts 88°
2026-05-07 02:39 30.32018 -90.11129 3998 ft 220 kts 89°
2026-05-07 02:39 30.32138 -90.09333 3724 ft 232 kts 89°
2026-05-07 02:39 30.32269 -90.07416 3263 ft 245 kts 89°
2026-05-07 02:40 30.32100 -90.05468 2771 ft 243 kts 117°
2026-05-07 02:40 30.31108 -90.03974 2289 ft 231 kts 150°
2026-05-07 02:40 30.29643 -90.03483 2021 ft 213 kts 184°
2026-05-07 02:40 30.28234 -90.03550 2018 ft 193 kts 184°
2026-05-07 02:41 30.26961 -90.03520 2009 ft 174 kts 182°
2026-05-07 02:41 30.25803 -90.03415 2004 ft 160 kts 178°
2026-05-07 02:41 30.24744 -90.03306 1995 ft 146 kts 183°
2026-05-07 02:41 30.23770 -90.03269 1992 ft 135 kts 182°
2026-05-07 02:42 30.22863 -90.03235 2003 ft 129 kts 185°
2026-05-07 02:42 30.21952 -90.03230 1999 ft 135 kts 184°
2026-05-07 02:42 30.21003 -90.03215 2005 ft 137 kts 185°
2026-05-07 02:42 30.20064 -90.03203 2007 ft 134 kts 183°
2026-05-07 02:43 30.19141 -90.03188 2001 ft 132 kts 183°
2026-05-07 02:43 30.18249 -90.03174 1999 ft 125 kts 184°
2026-05-07 02:43 30.17395 -90.03160 2021 ft 122 kts 185°
2026-05-07 02:43 30.16509 -90.03152 2018 ft 126 kts 184°
2026-05-07 02:44 30.15642 -90.03138 1983 ft 124 kts 184°
2026-05-07 02:44 30.14780 -90.03127 1854 ft 123 kts 184°
2026-05-07 02:44 30.13934 -90.03115 1698 ft 121 kts 184°
2026-05-07 02:44 30.13080 -90.03104 1536 ft 125 kts 182°
2026-05-07 02:45 30.12240 -90.03091 1383 ft 115 kts 182°
2026-05-07 02:45 30.11452 -90.03078 1225 ft 113 kts 182°
2026-05-07 02:45 30.10636 -90.03069 1069 ft 120 kts 184°
2026-05-07 02:45 30.09794 -90.03057 922 ft 122 kts 182°
2026-05-07 02:46 30.08965 -90.03047 773 ft 120 kts 180°
2026-05-07 02:46 30.08128 -90.03029 628 ft 118 kts 179°
2026-05-07 02:46 30.07346 -90.03018 465 ft 109 kts 182°
2026-05-07 02:46 30.06593 -90.03015 319 ft 109 kts 179°
2026-05-07 02:47 30.05817 -90.02993 187 ft 110 kts 180°
2026-05-07 02:47 30.05075 -90.02985 29 ft 104 kts 181°
2026-05-07 02:47 30.04488 -90.02981 11 ft 56 kts 180°
2026-05-07 02:47 30.04167 -90.02980 13 ft 37 kts 180°
2026-05-07 02:48 30.03940 -90.02978 10 ft 30 kts 176°
2026-05-07 02:48 30.03740 -90.02969 8 ft 30 kts 178°
2026-05-07 02:48 30.03593 -90.02950 7 ft 15 kts 131°
2026-05-07 02:48 30.03582 -90.02892 8 ft 3 kts 91°
2026-05-07 02:49 30.03582 -90.02844 8 ft 10 kts 90°
2026-05-07 02:49 30.03590 -90.02745 9 ft 14 kts 68°
2026-05-07 02:49 30.03618 -90.02660 9 ft 7 kts 176°
2026-05-07 02:49 30.03599 -90.02690 9 ft 0 kts 231°